Weather WX

World > North America > United States > Pennsylvania

Dark Water, Pennsylvania Regional Weather

Lat: 40.74N, Lon: 76.2W
Wx Zone: PAZ058
Warning FLW WEATHER ALERT - (More Info. Click Here) Warning
Feedback

Dark Water, PA Regional Weather

Expires:201906201300;;783771
ASUS41 KOKX 201213
RWROKX

Regional Weather Roundup
National Weather Service New York NY
800 AM EDT THU JUN 20 2019

Note: "FAIR" indicates few or no clouds below 12,000 feet with no
significant weather and/or obstructions to visibility.


PAZ047>061-062-071-201300-
Eastern Pennsylvania
  
CITY           SKY/WX    TMP DP  RH WIND       PRES   REMARKS
Philadelphia   CLOUDY    72  70  93 E5        29.62F                  
Allentown      CLOUDY    70  66  87 E6        29.62F                  
Scranton       CLOUDY    72  67  84 CALM      29.61F                  
$$


SKY/WX - Weather  TMP - Temperature  DP - Dew Point  RH - Relative Humidity
WIND - Wind Direction/Speed PRES - Barometric Pressure VSB - Visibility
WCI - Wind Chill Index E13G22 Wind - East Wind 13 mph/Gusts of 22 mph